Printer-friendly version

IAU Minor Planet Center

Minor Planet Center

(349) Dembowska

Orbital Elements

The following orbital elements are taken from MPC 31001:
  (349) Dembowska
Epoch 2005 Jan. 30.0 TT = JDT 2453400.5                 Goffin
M 198.14778              (2000.0)            P               Q
n   0.19686154     Peri.  347.17078     +0.94040487     -0.33118793
a   2.9265917      Node    32.50016     +0.32330505     +0.80042405
e   0.0869519      Incl.    8.25629     +0.10541601     +0.49963576
P   5.01           H    5.93          G   0.37           U   0
From 1414 observations at 72 oppositions, 1892-1996, mean residual 0".53.
An explanation of the orbital elements is available.

These orbital elements are also available in forms suitable for loading into a number of popular planetarium-type software programs.


Ephemeris

The following ephemeris is at intervals of five days. A daily ephemeris covering the same time interval is also available.

Personalized ephemerides for this object (and others) can be generated using the MPES.

Date    TT    R. A. (2000) Decl.     Delta      r     Elong.  Phase     V
 
2005 02 20    15 36.26   -20 18.2    2.925    3.165    94.8    18.1    11.5
2005 02 25    15 38.96   -20 36.9    2.852    3.163    99.1    18.0    11.4
2005 03 02    15 41.19   -20 54.3    2.779    3.162   103.6    17.7    11.3
2005 03 07    15 42.93   -21 10.5    2.708    3.160   108.1    17.4    11.3
2005 03 12    15 44.14   -21 25.5    2.638    3.159   112.8    16.9    11.2
2005 03 17    15 44.79   -21 39.1    2.571    3.157   117.6    16.2    11.1
2005 03 22    15 44.86   -21 51.3    2.506    3.155   122.5    15.5    11.1
2005 03 27    15 44.34   -22 02.1    2.445    3.154   127.5    14.5    11.0
2005 04 01    15 43.22   -22 11.3    2.388    3.152   132.6    13.5    10.9
2005 04 06    15 41.51   -22 18.9    2.335    3.150   137.9    12.3    10.8
2005 04 11    15 39.22   -22 24.8    2.287    3.148   143.3    11.0    10.7
2005 04 16    15 36.38   -22 28.8    2.244    3.146   148.8     9.5    10.6
2005 04 21    15 33.04   -22 30.9    2.208    3.144   154.3     8.0    10.6
2005 04 26    15 29.28   -22 31.1    2.177    3.141   160.0     6.3    10.5
2005 05 01    15 25.17   -22 29.4    2.153    3.139   165.6     4.6    10.4
2005 05 06    15 20.80   -22 25.9    2.137    3.137   171.0     2.9    10.3
2005 05 11    15 16.28   -22 20.6    2.127    3.135   175.4     1.5    10.2
2005 05 16    15 11.72   -22 14.0    2.124    3.132   174.4     1.8    10.2
2005 05 21    15 07.25   -22 06.4    2.129    3.130   169.6     3.4    10.3
2005 05 26    15 02.97   -21 58.1    2.141    3.127   164.1     5.1    10.4
2005 05 31    14 58.97   -21 49.4    2.159    3.125   158.5     6.8    10.5
2005 06 05    14 55.33   -21 41.0    2.184    3.122   153.0     8.5    10.5
2005 06 10    14 52.15   -21 33.1    2.215    3.120   147.5    10.1    10.6
2005 06 15    14 49.47   -21 26.2    2.252    3.117   142.1    11.5    10.7
2005 06 20    14 47.34   -21 20.6    2.294    3.114   136.9    12.9    10.8
2005 06 25    14 45.77   -21 16.5    2.340    3.111   131.8    14.1    10.8
2005 06 30    14 44.78   -21 14.3    2.391    3.108   126.8    15.2    10.9
2005 07 05    14 44.37   -21 13.9    2.445    3.106   122.0    16.1    11.0
2005 07 10    14 44.54   -21 15.6    2.502    3.103   117.3    16.9    11.1
2005 07 15    14 45.28   -21 19.3    2.562    3.100   112.7    17.6    11.1
2005 07 20    14 46.55   -21 25.0    2.623    3.097   108.3    18.2    11.2
2005 07 25    14 48.35   -21 32.6    2.687    3.093   104.0    18.6    11.2
2005 07 30    14 50.64   -21 42.1    2.751    3.090    99.8    18.9    11.3
2005 08 04    14 53.41   -21 53.4    2.817    3.087    95.7    19.1    11.4
2005 08 09    14 56.63   -22 06.2    2.883    3.084    91.7    19.2    11.4

Back to Bright Minor Planets

Astronomical Headlines Index

MPC


Valid HTML 4.01!